This is the latest recevied weather packets stored in our database for station/object IW4DZV-13. If no packets are shown the sender has not sent any weather packets the latest 10 day(s).
| Time | Temp. | Humidity | Pressure | Rain* | Wind** | Luminosity | Snow |
|---|---|---|---|---|---|---|---|
| 1777512629 | 11.67° C | 83% | 1020.6 hPa | 0.51 mm | - | 0 W/m² | - |
| 1777511723 | 12.22° C | 84% | 1020.5 hPa | 0.51 mm | - | 0 W/m² | - |
| 1777510823 | 12.22° C | 84% | 1020.5 hPa | 0.51 mm | - | 0 W/m² | - |
| 1777509919 | 12.22° C | 83% | 1020.4 hPa | 0.25 mm | - | 0 W/m² | - |
| 1777509035 | 12.78° C | 81% | 1020.2 hPa | 0.25 mm | - | 0 W/m² | - |
| 1777508115 | 12.78° C | 79% | 1020.1 hPa | 0 mm | - | 0 W/m² | - |
| 1777507214 | 12.78° C | 82% | 1019.9 hPa | 0 mm | - | 0 W/m² | - |
| 1777506314 | 12.78° C | 81% | 1019.7 hPa | 0 mm | - | 0 W/m² | - |
| 1777505414 | 12.78° C | 83% | 1019.8 hPa | 0 mm | - | 0 W/m² | - |
| 1777504512 | 12.78° C | 84% | 1019.8 hPa | 0 mm | - | 0 W/m² | - |
| 1777503611 | 12.78° C | 85% | 1019.8 hPa | 0 mm | - | 0 W/m² | - |
| 1777502710 | 12.78° C | 86% | 1019.7 hPa | 0 mm | - | 0 W/m² | - |
| 1777501808 | 12.78° C | 86% | 1019.4 hPa | 0 mm | - | 0 W/m² | - |
| 1777500905 | 12.78° C | 86% | 1019.2 hPa | 0 mm | - | 0 W/m² | - |
| 1777500004 | 12.78° C | 85% | 1019.2 hPa | 0 mm | - | 0 W/m² | - |
| 1777499103 | 13.33° C | 84% | 1019.2 hPa | 0.51 mm | - | 0 W/m² | - |
| 1777498202 | 13.89° C | 81% | 1019.1 hPa | 0 mm | - | 0 W/m² | - |
| 1777497360 | 14.44° C | 78% | 1018.9 hPa | 0 mm | - | 0 W/m² | - |
| 1777496465 | 14.44° C | 76% | 1018.7 hPa | 0 mm | - | 0 W/m² | - |
| 1777495556 | 14.44° C | 74% | 1018.4 hPa | 0 mm | - | 0 W/m² | - |
| 1777494655 | 15° C | 72% | 1018.1 hPa | 0 mm | - | 0 W/m² | - |
| 1777493760 | 15° C | 70% | 1018 hPa | 0 mm | - | 0 W/m² | - |
| 1777492856 | 15° C | 69% | 1017.9 hPa | 0 mm | - | 0 W/m² | - |
| 1777491951 | 15.56° C | 68% | 1017.7 hPa | 0 mm | - | 0 W/m² | - |
| 1777491050 | 15.56° C | 68% | 1017.5 hPa | 0 mm | - | 0 W/m² | - |
* Rain since midnight (hover to see other rain measurements)
** Current wind speed in m/s (hover to see current wind gust speed)